Theta_e
301 303 304 303 305 306 304 304 303 303 304 303 303 303 303 304 304 304 306 307 306 307 308 308 308 308 309 310 311 312 312 312 312 311 312 313 321 339 345 344 345 345 344 342 340 341 341 340 340 339 339 338 338 337 337 337 337 336 337 338 339 340 339 339 339 339 339 340 340 340 339 338 337 339 338 335 334 335 337 338 338 337 337 338 338 339
301 302 303 301 303 305 305 305 304 303 303 303 303 303 303 303 303 303 304 305 306 306 306 306 306 306 306 307 309 311 311 311 311 310 311 311 316 333 344 344 344 344 344 343 342 341 340 341 340 339 339 338 338 338 337 338 337 337 337 338 339 340 340 340 339 339 340 340 341 340 339 338 338 340 338 336 335 336 337 338 338 337 337 338 338 339
304 303 303 301 302 303 303 304 304 303 304 303 303 303 303 303 303 304 304 304 304 305 305 304 304 304 304 305 307 310 312 311 312 311 312 311 312 325 340 344 343 344 345 345 344 342 340 340 340 338 338 338 338 338 338 338 337 337 337 338 339 340 340 340 340 340 340 340 341 341 339 337 339 340 338 337 337 338 338 338 337 337 337 337 338 339
305 305 304 303 302 301 302 302 303 303 303 303 303 303 303 302 303 304 304 304 305 305 306 305 304 304 304 305 307 310 312 312 313 313 313 313 311 317 332 342 343 344 345 345 345 344 341 341 339 338 338 338 338 338 338 338 338 337 337 338 339 340 340 340 340 340 340 341 341 341 339 338 339 340 339 339 339 339 338 338 338 337 337 337 338 339
304 304 304 303 303 302 302 302 302 302 303 302 302 302 302 302 303 303 303 304 304 305 305 304 305 304 305 305 305 308 312 311 311 312 312 312 312 313 324 337 343 343 344 345 345 344 343 341 340 339 338 338 338 338 338 338 338 338 337 337 338 339 340 340 340 340 340 340 340 340 339 339 339 339 340 339 339 339 338 338 337 337 337 338 339 339
303 303 303 303 303 302 302 302 302 302 303 302 302 302 302 302 303 303 303 303 304 305 304 305 305 305 307 308 306 307 311 311 310 311 310 311 312 313 318 331 341 343 342 344 344 344 344 342 340 339 339 338 338 338 338 338 338 338 338 337 338 339 339 340 340 340 340 340 340 340 339 338 338 338 338 339 338 338 338 337 337 337 338 338 339 340
303 303 303 304 304 303 302 301 301 302 303 303 303 303 302 302 302 303 303 303 305 306 304 305 305 306 308 309 312 312 311 312 311 311 311 311 312 313 315 325 338 343 343 343 344 343 344 343 341 340 339 338 338 338 339 338 338 338 338 337 337 339 339 339 339 340 340 340 340 339 339 338 337 337 337 338 338 338 338 337 337 338 338 339 340 340
303 304 304 304 303 303 303 301 301 302 302 302 303 304 303 303 302 303 302 303 305 305 304 304 305 305 305 308 315 314 311 312 311 311 311 310 311 313 315 320 332 342 343 343 344 343 344 343 342 341 339 339 339 339 339 338 338 338 338 338 337 338 339 339 339 339 339 340 339 339 338 338 338 338 337 338 338 337 338 338 338 338 339 339 339 340
303 303 303 303 302 302 302 301 302 301 301 301 301 302 302 302 302 302 302 303 304 304 304 304 304 306 305 307 312 311 309 309 309 309 309 309 310 311 314 317 325 337 343 343 343 343 343 343 341 341 340 340 339 339 339 338 339 339 338 338 337 338 339 339 338 339 339 339 339 338 338 338 338 338 338 338 337 337 338 338 339 339 339 339 339 339
306 304 303 303 302 302 302 302 302 300 300 301 301 301 302 302 302 302 302 302 303 305 305 304 304 305 306 307 309 308 307 307 306 308 308 308 309 310 312 316 321 332 340 343 342 343 343 341 341 342 341 340 339 339 339 339 339 338 338 338 337 338 338 338 339 339 339 338 338 338 338 338 337 337 337 337 337 337 338 338 339 339 338 339 338 338
306 306 305 305 305 304 303 303 302 301 301 301 302 302 302 302 302 302 304 303 304 306 306 304 304 305 305 307 308 309 311 310 307 307 308 309 310 311 312 315 319 329 339 342 342 343 342 341 341 341 341 340 340 339 339 339 338 338 338 337 337 338 338 338 339 338 338 338 338 338 338 337 337 337 337 337 337 337 337 337 338 338 338 338 338 338
306 306 306 306 306 305 303 303 303 302 301 302 303 301 302 305 305 305 305 304 305 306 305 303 304 304 304 306 308 310 312 311 309 308 308 309 310 312 314 316 319 326 337 342 342 343 343 342 342 341 341 340 339 339 339 338 338 338 337 337 337 337 338 338 338 338 338 338 338 338 338 337 337 337 337 336 336 336 336 337 337 337 337 337 337 337
306 306 305 305 307 305 303 304 304 303 302 302 303 303 302 305 306 306 307 306 306 307 306 305 305 305 305 306 307 308 308 308 308 308 309 309 309 310 313 317 321 325 334 341 343 343 343 343 343 341 340 340 339 338 338 338 338 338 337 337 337 337 337 338 338 338 338 337 338 338 337 337 337 337 337 337 336 336 336 336 337 337 337 337 336 336
308 307 304 304 306 305 304 305 305 306 305 302 303 305 303 303 304 306 308 308 307 309 309 306 305 305 306 307 308 307 307 307 308 308 308 308 309 309 311 315 319 324 332 340 343 343 343 343 343 341 340 339 339 338 338 338 338 337 337 337 337 337 337 337 338 338 337 338 337 337 337 337 337 337 337 337 337 336 336 336 337 337 337 337 336 336
310 310 306 304 306 305 304 305 305 306 306 303 302 304 304 305 306 307 309 309 308 311 312 307 307 308 307 309 312 308 308 308 307 308 308 308 309 309 310 311 315 321 327 336 343 343 343 344 342 341 340 339 339 338 338 338 337 337 337 337 337 337 337 337 337 337 337 337 337 337 337 337 337 337 337 337 337 337 337 337 337 337 337 337 336 336
308 309 307 305 305 304 304 305 304 304 305 303 302 303 303 305 307 308 310 309 308 312 313 310 311 313 311 313 313 309 309 308 307 309 308 309 309 309 311 311 312 315 320 331 342 344 344 344 342 340 340 340 339 338 338 337 337 337 337 337 337 337 337 337 337 337 337 337 337 337 337 337 337 337 336 336 337 337 337 337 337 337 337 337 336 336
308 309 308 307 306 304 304 306 304 304 306 305 303 303 303 305 307 307 307 310 311 311 311 310 310 311 311 312 311 310 310 308 308 309 309 310 310 311 316 317 315 314 315 325 339 344 344 344 342 340 340 340 339 338 338 337 337 337 336 337 337 337 337 337 337 337 337 337 337 336 336 337 337 336 337 336 336 336 337 336 336 336 336 336 336 336
308 309 307 306 307 306 304 304 303 303 305 304 303 303 305 306 308 309 309 311 312 310 310 311 311 311 311 314 316 314 311 309 310 311 313 316 316 317 322 322 319 316 314 320 334 343 344 344 343 341 340 340 340 339 338 338 338 337 337 337 336 337 337 337 337 337 337 337 336 336 336 336 337 336 336 337 336 336 336 336 336 336 336 335 335 335
307 309 309 306 306 307 304 303 305 305 303 303 304 304 307 308 307 310 311 309 310 309 311 312 311 312 312 314 318 316 313 315 318 321 323 324 323 324 326 325 323 320 316 318 330 341 344 344 343 341 340 340 340 339 338 338 338 337 337 337 337 337 337 337 337 337 337 337 336 336 336 336 336 336 336 336 336 336 336 336 335 335 335 335 334 334
308 309 310 307 305 306 306 305 308 309 303 301 303 303 307 309 308 312 311 309 311 311 312 312 311 312 314 315 316 316 316 319 321 324 326 326 327 327 327 328 327 324 319 319 328 338 343 344 343 341 341 340 340 339 339 338 338 337 337 337 337 337 337 337 337 337 337 337 336 336 336 336 335 336 336 336 336 336 336 336 335 335 334 334 333 333
309 309 309 308 306 307 308 307 309 310 305 303 303 303 307 307 307 311 310 309 311 311 311 312 311 314 318 320 318 315 315 317 319 322 323 325 327 327 327 327 326 325 323 321 328 337 341 343 343 341 341 341 340 340 339 338 338 337 337 337 337 337 337 337 337 337 337 336 336 336 335 335 335 335 336 335 335 336 336 335 335 335 334 333 332 332
310 309 308 309 308 308 308 307 308 308 307 307 306 306 308 307 306 309 309 309 310 310 312 312 312 316 319 320 319 316 314 314 317 321 322 323 325 325 325 325 324 326 326 325 328 335 340 342 343 341 341 341 340 339 339 338 338 337 337 337 337 337 337 337 337 337 337 336 336 336 335 335 335 335 335 335 335 335 335 335 334 334 334 332 332 332
310 309 309 309 308 308 307 306 306 306 307 307 306 306 307 307 308 308 307 311 311 310 311 311 312 317 320 322 322 318 314 313 315 320 321 322 323 323 323 322 323 325 326 327 329 334 339 341 341 341 340 340 340 339 339 338 338 338 337 337 337 337 337 337 337 337 337 337 336 336 335 335 335 335 335 335 335 335 334 334 334 334 334 333 332 331
308 309 310 310 309 309 307 305 306 306 306 307 308 307 305 306 308 305 308 314 315 313 313 313 313 318 322 324 320 314 312 312 314 319 320 320 322 323 322 321 322 324 326 329 331 334 339 341 341 342 341 341 340 339 339 338 338 338 338 337 337 337 337 337 338 338 337 337 336 336 335 335 334 334 334 334 334 334 334 333 333 333 333 332 331 331
309 310 310 310 311 311 310 309 308 307 307 309 312 310 306 307 306 305 308 312 312 312 312 312 312 314 316 317 314 312 313 312 312 316 318 320 321 321 321 320 321 324 327 330 334 336 338 341 342 342 342 341 340 339 339 338 339 338 338 337 337 337 337 337 338 338 337 337 336 336 335 335 334 334 334 333 333 333 333 333 333 332 332 331 331 330
310 311 310 311 313 313 313 313 311 310 309 310 311 309 307 308 307 306 310 312 311 312 313 312 311 310 310 311 311 312 314 312 312 313 315 318 320 320 321 320 322 325 328 330 333 336 338 340 342 342 342 341 339 339 339 338 339 339 338 338 338 337 337 338 338 338 337 337 336 336 335 334 334 334 334 333 333 333 333 332 332 331 331 331 330 330
310 311 310 311 312 312 312 312 310 311 312 311 311 310 307 307 306 307 311 313 312 311 314 317 315 311 310 311 312 314 314 311 312 313 313 315 318 320 320 320 323 326 329 330 331 334 337 340 341 342 342 341 339 340 340 339 339 339 338 338 338 338 338 338 338 338 337 337 337 336 335 335 334 334 334 333 333 333 332 332 332 331 331 330 330 329
312 311 310 311 311 311 311 311 310 310 311 311 312 313 311 307 306 307 308 311 313 312 312 316 318 315 312 311 314 315 312 309 312 313 312 314 317 319 320 322 324 326 330 331 331 332 336 339 341 341 342 341 339 339 340 339 340 339 339 339 338 338 338 338 338 337 337 337 337 336 335 335 334 334 334 333 333 333 333 332 332 331 330 330 329 329
312 311 311 312 311 311 310 310 310 309 309 309 310 312 313 310 307 307 307 309 313 314 311 313 317 316 313 311 313 313 310 310 311 311 313 317 320 321 323 325 326 327 331 333 332 332 335 339 340 341 341 341 340 339 339 340 340 340 340 339 339 338 338 338 338 337 337 337 336 336 335 334 334 334 334 333 333 332 332 332 331 330 330 330 330 329
312 312 312 312 312 312 311 311 311 310 309 310 311 312 313 312 309 308 307 308 311 312 311 312 315 315 312 310 311 311 311 310 312 314 318 320 321 324 326 327 326 328 332 334 334 333 335 339 340 340 341 341 340 340 340 340 340 340 340 339 339 339 338 338 338 337 337 337 336 336 335 334 335 334 333 333 332 332 331 330 329 329 330 330 330 329
311 313 313 313 313 314 314 314 313 311 311 312 313 314 314 313 311 307 306 308 311 311 311 312 313 313 311 310 311 312 312 313 317 319 320 321 323 326 329 328 327 329 332 334 336 335 336 339 340 340 341 341 340 340 340 340 340 340 340 340 339 339 339 338 338 337 337 337 337 336 335 335 335 334 333 333 332 331 330 329 329 329 330 331 330 329
311 313 314 314 315 315 315 317 316 313 313 314 315 316 315 315 314 310 308 309 310 310 311 312 312 311 310 311 312 312 312 316 320 320 319 321 323 326 328 327 327 329 331 335 338 338 338 339 340 340 340 340 340 340 340 340 340 340 340 340 339 339 339 338 338 338 337 337 336 336 335 335 334 333 333 332 331 330 329 329 329 329 329 330 329 328
312 312 313 314 315 315 315 317 316 315 315 316 315 315 316 316 316 315 314 313 311 310 311 312 311 312 315 316 317 316 315 315 317 317 319 322 323 325 326 326 327 330 331 334 338 340 339 339 339 340 340 339 339 339 340 340 340 340 340 340 340 339 338 338 338 337 337 337 336 335 335 334 334 333 332 332 331 329 328 328 328 328 328 329 328 327
314 312 313 314 315 316 316 316 316 316 316 316 313 313 316 317 317 318 318 317 315 313 314 316 316 318 321 322 322 323 320 316 315 316 319 321 322 324 325 326 330 332 332 334 339 341 340 339 339 339 338 339 339 340 340 340 340 340 340 340 340 339 338 338 337 337 337 336 336 335 335 334 333 332 332 332 331 329 328 328 328 328 328 328 327 325
315 313 313 314 315 316 316 316 318 319 317 315 314 314 316 316 316 318 318 318 319 319 320 322 321 320 322 323 323 323 321 318 317 319 319 319 321 326 328 330 332 333 334 335 338 341 340 339 340 339 338 338 339 339 339 339 339 340 339 339 339 339 338 338 337 337 337 336 336 335 335 334 333 332 331 331 330 329 328 327 327 327 327 327 326 324
316 315 313 314 315 316 316 318 320 319 316 315 315 315 316 315 315 318 319 319 321 322 322 321 320 318 320 322 322 322 322 321 321 321 320 319 321 324 326 327 328 331 333 334 336 339 340 338 337 338 337 338 338 339 339 339 339 339 338 339 339 338 338 338 338 337 336 336 336 335 334 334 333 332 331 330 329 328 326 327 327 326 325 325 324 323
316 316 314 314 316 317 318 319 319 317 316 316 317 316 317 317 318 318 320 320 321 321 321 321 320 318 318 321 323 322 322 323 323 321 318 317 319 322 322 322 322 323 327 330 331 333 335 336 335 336 337 337 338 338 338 338 338 338 338 338 338 338 338 337 337 337 336 336 336 335 335 334 333 332 331 329 328 327 326 326 326 324 324 324 321 320
315 317 315 316 317 317 318 320 321 320 318 316 316 315 315 317 318 318 319 321 321 320 320 321 321 321 321 322 323 323 323 326 327 322 320 321 323 324 324 323 321 321 324 328 330 330 331 334 336 336 337 337 337 337 338 337 338 338 337 338 338 338 338 337 337 337 336 336 335 335 334 333 333 332 330 329 327 326 326 326 325 325 325 323 322 321
315 318 315 315 317 317 318 320 321 320 318 315 315 315 315 316 317 317 320 323 322 319 319 320 321 322 323 323 323 324 326 330 330 325 322 324 325 324 324 325 323 322 323 324 327 330 332 334 335 336 336 336 336 337 337 337 337 337 337 337 337 337 337 337 337 337 336 336 335 334 334 333 333 332 330 328 327 326 326 326 325 325 324 323 324 324
313 316 315 315 316 317 318 320 320 318 317 316 317 317 316 316 316 317 321 322 319 319 320 320 320 322 323 323 324 325 326 328 328 325 323 324 324 323 324 324 323 323 323 322 324 329 332 333 334 334 334 335 336 336 337 337 336 336 336 336 337 337 337 337 337 337 336 336 335 334 333 332 332 331 330 328 327 327 327 326 325 324 321 321 323 322
312 314 314 314 314 315 317 319 320 319 318 317 317 317 317 316 317 319 321 320 318 319 321 320 320 322 322 323 324 325 325 325 324 323 323 323 324 323 323 322 322 322 323 323 325 329 332 333 334 334 334 335 336 336 336 337 336 335 336 336 336 337 337 337 337 337 336 335 334 333 333 333 332 331 330 329 329 328 327 325 324 323 321 321 320 319
312 312 311 312 314 315 317 319 320 319 318 316 317 318 318 317 318 319 319 319 319 320 320 320 321 321 322 322 323 324 323 322 322 323 323 323 323 323 322 322 323 323 323 323 326 329 332 333 334 334 335 335 335 336 336 336 335 335 335 335 336 337 337 337 337 336 335 334 334 333 332 333 332 331 330 329 329 328 325 323 323 321 320 321 320 318
313 311 309 311 313 313 315 318 319 317 315 316 317 316 316 317 318 318 319 319 319 319 319 320 320 321 321 322 322 322 322 322 322 322 323 323 323 322 321 322 323 324 324 325 328 330 331 332 333 333 334 335 335 336 336 335 335 335 334 335 336 336 335 336 336 336 335 333 333 332 332 332 332 331 329 328 328 326 324 322 321 320 319 319 318 316
313 309 308 310 312 312 312 315 316 314 313 316 317 316 315 316 318 319 319 319 319 319 319 320 320 320 320 320 321 321 321 321 322 323 323 323 322 322 322 322 323 323 323 324 327 329 330 331 332 332 334 335 335 335 336 335 335 334 333 334 334 333 333 335 335 334 333 332 332 332 332 332 331 330 328 327 326 325 323 321 320 319 318 318 317 317
308 306 307 309 311 311 312 312 312 312 312 314 314 314 314 316 317 319 319 319 319 320 319 319 320 320 319 319 320 320 320 321 322 323 324 324 323 323 323 323 323 323 322 323 324 327 330 331 331 331 333 334 335 335 336 335 334 332 331 333 333 332 332 333 333 332 331 331 331 331 331 331 330 329 327 326 326 324 321 320 319 318 317 317 318 318
306 306 308 309 309 310 311 311 311 310 310 310 310 311 314 317 317 318 319 319 319 319 320 320 320 319 319 319 320 320 320 321 322 323 324 324 323 323 323 323 323 322 322 323 323 324 327 330 331 331 332 333 334 335 335 335 333 331 330 332 332 331 332 333 332 331 330 330 330 331 331 329 327 326 325 326 326 324 322 321 320 318 317 318 318 317
307 307 306 307 308 309 310 310 308 307 308 308 308 309 313 315 314 315 316 318 319 319 319 320 319 319 319 319 319 320 320 320 322 324 324 324 324 324 323 324 324 322 322 323 322 322 325 329 331 332 330 331 333 334 334 334 333 330 330 331 331 331 331 331 331 330 329 329 330 330 329 326 324 324 324 324 324 322 321 320 320 318 317 317 316 314
306 306 306 308 310 309 308 307 306 307 308 308 309 310 310 310 311 311 312 314 317 318 319 319 320 320 319 319 319 319 319 320 322 324 324 323 323 323 323 324 324 323 322 322 322 323 325 327 330 331 329 329 332 333 333 333 332 330 330 331 331 331 330 330 329 329 328 328 329 328 327 326 324 323 323 322 322 321 319 319 319 318 318 318 317 316
305 305 307 308 308 308 308 307 307 308 310 310 309 310 309 309 311 311 310 313 317 319 319 319 319 319 319 319 320 319 319 321 323 323 323 323 323 323 324 324 324 324 322 322 323 324 325 325 327 328 328 329 331 332 332 332 331 330 331 331 331 330 329 329 329 328 328 328 327 325 325 324 324 323 321 320 320 320 319 319 319 320 320 320 320 321
306 306 306 306 307 308 308 307 307 308 310 310 309 309 310 310 310 311 312 315 318 319 319 319 319 319 319 319 319 318 318 320 322 322 323 324 323 323 323 323 324 324 323 322 323 324 324 324 326 326 327 328 329 330 330 330 330 330 330 331 330 330 329 328 328 328 328 327 325 323 323 322 322 322 321 320 319 318 317 317 318 319 319 318 318 320
306 305 305 306 308 308 307 306 307 308 309 309 309 310 310 310 311 312 314 316 318 319 319 319 319 319 319 319 318 317 318 320 321 322 324 324 323 322 321 321 322 323 322 321 322 323 323 323 324 325 326 327 328 328 329 329 329 329 330 330 330 330 329 328 327 326 325 325 324 322 321 321 321 320 319 319 318 317 316 315 315 316 316 316 316 317
Wind_Speed
2 1 3 4 4 6 6 7 7 4 3 3 3 3 4 4 7 6 4 6 4 4 7 8 15 16 9 8 7 6 8 8 12 14 12 11 8 7 9 11 12 14 13 17 22 23 22 22 23 24 26 29 30 30 32 33 35 37 37 36 36 35 35 34 33 33 33 32 31 30 30 30 28 27 26 25 26 25 23 21 20 20 19 18 17 17
1 3 6 5 6 7 6 6 6 4 4 4 4 5 5 5 7 6 4 6 3 3 8 10 14 18 13 10 7 5 8 10 11 12 13 14 11 8 9 12 13 12 12 14 16 16 19 21 23 25 27 30 32 33 36 37 36 35 35 35 35 35 35 36 36 36 35 34 33 30 30 31 30 29 28 27 27 25 23 22 21 21 20 19 18 17
2 6 7 5 5 5 4 5 5 5 5 5 4 4 5 4 5 5 4 5 3 3 8 11 13 16 15 12 10 7 7 11 11 10 12 14 12 9 10 12 12 12 11 12 11 12 19 23 25 26 27 31 34 34 35 35 34 33 34 34 34 35 36 36 37 37 35 34 32 29 29 31 29 28 29 28 26 23 22 21 22 22 21 20 18 16
4 6 5 5 6 5 4 4 5 5 4 4 4 3 6 4 2 3 2 3 4 5 7 10 10 12 12 10 8 7 8 10 12 11 12 13 12 12 11 11 12 14 14 13 11 12 16 21 23 25 27 30 31 31 33 34 35 36 36 36 36 36 36 37 37 36 35 33 30 28 28 29 28 26 27 26 24 23 22 21 23 23 22 20 18 16
10 8 2 2 4 6 6 5 4 4 3 4 5 6 7 6 5 6 5 3 4 6 8 9 9 10 10 10 8 6 7 10 12 13 13 13 13 12 12 12 13 15 15 14 13 13 14 17 22 27 29 31 32 33 36 38 39 39 38 37 36 36 36 36 36 35 33 31 29 27 26 26 25 24 25 25 23 23 23 24 25 24 22 20 18 16
12 8 3 4 5 5 5 5 5 5 3 4 6 10 11 9 7 8 7 4 3 6 7 5 5 7 5 6 8 6 7 10 11 12 14 14 13 11 11 12 12 14 14 14 15 15 15 16 21 27 30 31 31 35 39 41 41 39 37 36 36 37 37 37 36 35 33 32 32 31 28 27 25 24 26 27 26 25 25 25 25 23 22 20 18 17
5 3 6 8 9 5 6 6 5 6 3 5 5 8 10 9 9 9 9 4 2 5 4 4 4 7 4 3 7 6 7 10 9 10 12 12 12 11 10 11 11 12 12 12 14 15 16 17 18 22 27 30 32 37 40 39 38 38 36 36 37 37 37 38 36 35 34 34 34 34 32 30 28 25 26 28 28 27 26 25 24 23 22 20 19 18
1 2 5 8 8 7 7 6 5 8 5 5 3 6 8 8 9 10 9 5 4 6 5 3 4 7 7 5 7 6 5 8 9 10 11 9 11 11 11 12 13 13 13 12 12 14 16 17 18 22 28 33 36 37 37 36 38 40 39 38 38 37 37 37 36 35 36 36 35 34 32 29 29 28 26 27 27 27 26 25 23 23 22 20 19 18
1 2 4 6 6 6 6 5 7 9 6 6 3 5 7 7 8 9 7 5 5 5 6 7 5 6 8 5 5 6 7 10 11 13 14 11 11 11 11 13 13 14 14 14 14 14 15 16 21 27 31 35 37 36 36 38 40 40 39 37 37 37 37 36 36 36 37 36 35 34 31 29 28 28 27 27 26 26 26 25 24 23 22 21 20 19
2 3 2 3 4 4 5 5 7 9 7 6 4 3 4 5 6 6 5 5 5 4 6 10 7 5 7 3 3 5 7 10 12 13 15 13 12 11 11 12 12 12 12 14 15 15 15 19 26 31 32 35 36 36 38 39 38 37 36 36 38 38 37 36 36 37 37 36 35 35 33 30 28 27 27 27 26 26 26 25 24 23 22 21 21 20
6 6 6 5 5 4 4 5 6 9 8 3 2 2 4 4 4 4 4 4 3 4 7 13 12 8 7 3 4 5 6 9 9 11 14 13 11 10 9 10 10 10 10 12 14 14 15 20 27 29 30 33 34 34 35 35 34 35 36 37 38 37 36 36 37 37 37 36 36 36 34 32 31 29 29 28 27 27 26 26 25 24 22 22 22 22
5 7 6 4 6 6 5 5 4 5 5 2 1 1 3 4 2 2 1 2 2 5 7 12 12 10 8 5 4 6 8 9 8 10 14 14 11 9 7 8 9 9 10 12 13 13 14 16 19 20 22 25 26 27 30 32 33 35 35 36 36 36 36 37 37 38 37 37 36 36 35 34 33 32 32 31 29 28 27 27 26 24 23 23 23 23
4 8 8 4 5 6 5 4 3 3 3 3 2 1 1 3 3 2 3 1 3 5 5 8 10 8 8 7 8 10 13 12 11 11 14 15 14 10 7 7 8 8 10 11 12 13 13 14 14 15 17 20 21 25 28 32 34 34 35 36 37 37 37 37 37 38 38 38 37 37 36 35 34 34 34 33 31 30 29 28 28 27 26 25 25 25
4 4 3 3 3 6 7 6 4 3 3 4 4 3 3 3 1 2 4 2 3 4 4 5 6 5 5 6 10 14 17 16 15 14 15 16 15 12 9 8 8 8 10 10 12 13 13 14 14 15 18 21 23 27 30 32 33 33 34 36 37 37 37 37 37 38 38 38 38 37 36 35 35 35 35 34 32 31 30 30 30 29 29 28 27 26
2 5 1 4 2 4 9 9 7 5 4 5 4 4 4 4 3 4 4 3 4 3 4 5 3 3 5 5 10 14 17 17 15 14 14 14 13 11 9 8 8 9 10 10 11 13 15 16 16 16 20 23 25 29 31 32 33 33 34 37 38 37 38 38 38 38 39 38 37 37 37 36 37 36 35 34 33 32 31 31 31 30 30 29 28 27
2 6 5 4 3 4 6 6 5 5 5 4 3 4 5 6 4 3 3 3 1 1 3 3 3 4 5 6 8 12 15 15 15 13 11 12 11 7 7 8 8 9 10 10 12 13 15 16 16 17 22 25 27 30 31 32 34 34 35 37 39 39 39 39 38 39 39 38 36 36 37 37 37 36 35 34 33 32 32 31 30 30 30 29 28 27
2 5 4 4 6 5 7 6 5 6 4 3 4 5 4 4 4 2 3 2 3 1 4 1 3 6 5 8 11 12 13 13 14 11 9 10 8 5 6 7 7 8 10 11 12 14 15 16 16 18 23 26 28 30 31 33 36 38 38 39 39 38 37 38 40 40 38 37 36 36 36 37 37 36 35 35 33 32 31 30 30 30 29 29 28 28
2 6 4 4 8 7 5 5 5 6 5 3 3 5 1 2 2 2 1 2 2 3 4 1 5 7 5 6 9 9 10 11 11 8 6 6 4 3 6 6 7 9 10 12 14 15 16 17 16 18 24 29 32 33 34 37 39 40 40 40 39 39 39 41 40 38 37 37 36 35 36 37 37 36 35 35 34 32 31 30 30 30 29 29 29 28
1 5 4 3 5 6 1 3 3 6 5 4 3 3 3 1 1 1 1 2 2 3 3 3 6 6 5 5 5 3 2 3 5 4 4 4 3 4 6 7 7 8 9 11 13 14 16 17 16 17 22 29 32 34 36 38 38 38 37 38 39 39 39 38 36 35 35 36 36 36 36 37 36 35 35 34 33 33 32 31 30 30 29 29 29 29
1 2 3 2 3 4 4 1 2 3 3 3 2 1 3 3 3 2 2 2 2 2 2 3 4 4 6 6 4 2 2 2 3 3 4 5 5 5 6 6 7 7 7 10 11 12 15 16 17 20 24 28 32 34 35 35 35 35 36 37 37 36 35 35 35 36 36 36 36 35 36 37 36 35 35 34 34 33 33 32 31 30 29 30 30 30
1 2 4 3 2 3 3 3 5 4 3 3 2 2 3 2 1 1 1 2 3 2 2 2 4 5 5 3 5 5 5 5 5 4 5 6 6 6 6 6 7 7 7 9 11 12 14 15 16 21 27 29 31 33 34 34 34 35 35 36 37 36 36 36 36 36 36 36 36 35 36 37 36 35 35 34 34 34 32 32 31 30 30 30 30 30
2 2 4 5 4 3 6 5 6 5 5 4 4 3 4 4 3 2 2 2 3 2 3 3 4 6 5 3 5 6 8 9 7 5 6 6 6 7 6 7 8 8 7 7 11 12 13 15 15 19 24 27 27 29 30 31 32 32 33 34 36 37 37 37 37 37 36 36 36 36 36 36 35 35 35 34 34 33 33 32 31 30 30 30 31 31
2 1 4 6 6 8 11 8 7 7 4 3 2 3 3 3 3 4 4 3 2 2 1 2 4 6 5 3 5 8 10 10 8 6 6 6 7 7 7 7 8 8 8 7 10 11 12 14 15 17 21 24 25 27 28 30 31 32 33 34 35 36 37 38 38 37 35 35 35 35 35 34 34 34 34 34 34 34 33 32 32 31 31 31 31 31
2 1 4 6 5 7 9 4 4 4 2 1 3 4 5 3 2 3 3 2 2 2 2 2 4 7 4 2 5 11 13 12 8 6 7 8 7 6 7 7 6 7 8 5 7 10 11 13 14 15 17 19 22 25 27 29 30 32 33 34 35 37 37 37 36 35 35 35 35 34 34 34 34 34 34 34 34 34 33 32 32 31 31 31 31 31
2 2 2 3 4 4 4 3 2 2 1 3 4 4 6 6 4 3 1 2 2 5 6 4 5 7 5 5 9 12 14 16 12 7 7 8 7 7 7 7 6 6 7 5 5 9 12 13 14 14 14 15 19 23 26 28 30 31 33 34 36 37 36 35 34 34 35 35 34 34 34 34 34 35 35 34 34 34 33 33 32 31 31 31 32 32
2 2 2 3 4 3 3 1 1 0 1 3 3 4 8 9 9 5 1 3 4 5 5 4 6 8 9 11 12 11 13 16 14 9 8 7 6 7 7 7 6 6 6 5 5 8 11 13 13 14 13 14 19 23 25 28 29 31 32 35 36 36 36 36 35 35 35 35 34 34 34 34 35 35 35 34 33 33 33 33 32 31 31 32 32 32
1 3 4 6 7 5 5 5 3 3 2 3 5 5 7 9 11 7 3 4 5 4 3 5 7 10 13 14 12 11 15 16 12 11 12 9 7 8 7 7 7 6 6 5 4 7 10 12 13 14 14 14 19 24 27 29 30 31 32 33 34 34 35 35 35 35 35 35 34 34 34 35 35 36 35 34 33 33 33 33 32 31 31 32 32 32
2 4 5 9 12 11 9 11 8 4 5 6 6 6 6 6 7 7 7 6 4 2 6 8 8 9 14 14 11 12 17 15 11 10 12 11 10 9 7 8 8 7 6 4 4 8 12 13 13 15 15 15 19 23 26 28 30 32 33 34 34 34 34 35 35 35 35 34 34 34 34 35 35 35 35 33 33 33 33 32 32 31 31 31 31 31
1 4 4 6 11 12 11 12 12 7 7 8 8 8 7 6 7 10 12 9 5 6 10 8 7 9 13 12 12 14 16 14 12 11 10 10 10 9 8 9 10 9 10 8 6 8 12 13 14 15 15 16 18 21 24 25 28 30 30 31 32 33 34 35 35 36 35 35 35 34 34 34 34 34 34 33 33 33 33 32 32 32 31 31 30 29
1 4 4 4 10 12 10 13 13 9 7 8 9 10 9 9 10 11 12 10 9 11 13 10 9 12 13 14 14 14 14 12 10 9 9 9 10 9 7 8 10 10 10 11 9 8 11 13 14 15 16 16 17 20 23 24 26 28 28 29 31 32 33 34 34 34 34 35 35 34 34 33 33 33 33 33 33 32 32 32 32 32 31 30 29 28
3 4 3 3 6 11 7 8 10 10 9 9 8 8 8 8 9 9 10 9 8 11 13 13 13 13 14 13 11 11 11 8 8 10 10 10 9 7 6 8 9 9 9 10 10 9 10 12 13 14 15 16 17 21 24 25 27 29 29 30 32 33 34 34 34 33 34 34 34 34 34 33 33 34 34 34 33 32 32 32 32 32 31 30 29 28
4 3 3 1 3 7 4 2 6 8 8 6 6 6 6 6 6 7 8 7 9 11 12 11 10 10 11 9 8 10 10 7 8 12 11 9 8 6 6 8 9 8 8 9 9 8 10 12 13 14 15 15 17 22 25 25 26 27 28 30 32 34 35 34 34 34 33 33 33 33 34 34 33 34 34 34 32 32 32 32 32 32 31 30 29 28
3 3 3 2 3 6 4 2 2 2 2 1 4 4 4 4 3 4 5 5 7 9 8 7 7 7 8 8 8 12 13 10 10 11 9 8 8 6 6 7 9 8 8 8 7 8 9 10 12 13 13 14 18 24 28 28 28 28 30 33 34 34 34 34 34 33 32 32 32 34 35 34 34 34 35 34 33 32 32 32 32 32 31 30 29 29
3 4 3 1 2 5 6 5 2 3 2 1 2 2 3 4 4 5 7 8 6 4 4 5 6 6 7 8 9 12 14 13 12 11 8 7 7 7 7 8 8 9 8 7 6 7 8 8 9 11 15 18 22 25 28 29 30 30 31 32 33 33 33 33 33 32 32 32 33 34 35 34 34 34 34 35 34 32 32 33 33 32 31 30 29 29
5 5 3 1 2 3 4 4 3 2 0 2 2 4 5 5 5 7 9 8 5 1 2 4 6 9 9 10 10 10 12 13 13 12 11 8 7 7 7 8 8 8 8 7 6 5 7 8 8 9 13 19 23 23 24 26 26 26 27 27 28 30 32 32 32 32 32 32 33 34 35 35 35 34 33 34 34 34 34 34 33 32 31 31 31 31
7 5 3 1 2 2 2 3 1 1 2 3 3 5 6 4 4 5 5 5 3 3 4 5 7 10 12 12 11 9 12 13 12 11 8 6 6 6 7 8 9 8 9 8 6 5 7 9 10 11 14 18 22 22 23 25 25 24 25 27 28 29 29 30 29 29 31 32 32 34 35 35 35 34 33 34 34 34 34 34 33 32 32 31 31 31
5 4 3 1 1 1 2 3 1 1 2 3 2 5 5 5 6 3 2 4 3 1 7 9 8 9 12 12 10 10 12 11 9 6 2 3 1 4 7 8 9 9 10 9 7 7 9 12 15 17 19 20 21 23 24 25 26 25 25 26 27 27 27 27 27 28 30 32 33 35 36 36 35 34 34 34 34 33 34 34 33 32 32 31 30 30
4 1 3 2 1 1 2 3 2 3 2 3 5 9 10 10 9 5 2 3 3 1 7 11 10 9 10 9 9 10 9 6 5 5 3 7 11 12 11 11 9 8 10 10 7 6 8 13 17 20 22 22 22 23 25 25 26 25 24 24 26 27 26 26 26 28 30 32 34 35 35 36 36 35 34 34 34 33 33 33 33 33 33 33 31 31
5 1 1 2 2 3 3 2 2 2 1 4 10 13 14 13 9 3 2 2 3 2 8 11 12 11 9 9 9 8 6 4 5 5 7 13 17 15 14 14 12 7 8 11 10 7 9 14 19 21 23 22 22 24 27 27 27 25 22 23 25 25 25 26 28 31 32 33 34 35 35 35 36 36 35 34 33 34 34 34 34 34 34 34 34 34
7 4 3 4 5 7 6 3 1 1 1 6 12 15 16 13 5 0 1 3 5 8 10 10 12 12 9 9 9 6 3 3 6 8 12 15 17 15 11 11 12 10 8 10 11 10 12 14 16 16 17 20 23 27 29 29 27 25 23 23 24 23 25 28 31 32 33 32 33 34 34 35 36 36 36 34 33 34 35 35 34 34 34 33 33 33
7 5 4 5 6 8 7 3 2 1 2 5 12 16 17 11 2 2 4 5 9 13 11 9 12 12 10 10 8 5 4 5 6 11 15 15 16 16 13 8 9 11 9 10 12 12 14 16 17 17 19 23 25 27 29 28 25 23 23 23 22 23 28 30 29 29 30 31 33 34 35 36 37 36 35 34 35 35 34 34 35 35 34 33 32 31
6 5 5 6 6 6 4 3 3 2 2 5 12 13 10 6 3 4 7 9 10 12 11 10 10 10 10 10 8 8 10 9 9 11 14 14 13 14 14 10 9 11 9 8 13 13 13 14 17 18 20 23 27 28 30 28 24 22 22 21 23 27 29 28 27 28 30 32 34 34 35 36 36 35 35 35 37 36 34 33 33 32 33 34 33 30
4 4 5 5 5 4 4 3 4 3 5 11 14 9 5 5 5 6 8 10 10 10 10 10 9 9 10 11 9 10 13 14 13 11 12 14 13 12 12 11 10 11 9 4 8 14 14 11 12 15 18 23 27 29 29 28 24 22 21 21 24 26 24 23 26 30 31 33 34 34 35 36 36 35 35 35 36 36 34 33 31 30 30 30 28 25
2 2 3 4 3 4 5 4 3 5 9 11 10 7 7 9 8 7 8 10 10 9 8 8 9 9 10 11 11 11 12 14 14 13 12 13 13 12 12 10 9 9 9 8 6 10 13 9 8 13 16 21 26 28 29 29 23 17 17 19 21 22 22 23 27 30 31 32 33 34 35 36 36 35 35 36 36 34 32 31 30 30 29 28 27 26
3 2 3 3 2 2 4 6 8 9 11 9 7 8 11 12 10 8 8 9 9 8 7 8 10 11 10 11 11 11 10 11 13 13 12 12 12 12 11 10 8 8 8 9 9 7 7 9 11 14 15 20 26 27 28 29 24 18 18 22 22 24 27 27 27 29 31 32 33 35 35 34 34 35 35 37 37 34 31 31 30 30 30 30 30 30
4 3 1 2 5 5 6 9 10 10 12 13 12 9 8 8 9 9 8 8 9 9 7 7 10 12 12 11 10 9 9 9 11 13 11 10 11 11 10 9 7 7 9 9 9 8 5 8 12 13 13 17 24 26 24 25 27 25 23 22 22 25 30 32 31 30 31 33 34 35 34 31 31 33 35 37 37 35 35 35 34 32 32 32 31 29
3 2 1 3 5 5 5 8 10 13 16 17 14 10 7 9 11 10 7 8 10 10 9 8 10 12 12 10 8 9 9 9 10 11 10 9 9 9 9 9 7 6 7 8 11 10 5 7 9 9 10 13 19 22 21 23 27 28 26 25 25 26 29 32 32 28 28 30 32 32 32 31 30 31 33 35 35 34 34 36 36 34 32 31 28 23
2 3 4 4 4 4 7 11 15 17 15 12 9 10 11 12 15 14 11 9 10 11 11 9 8 9 10 10 8 8 8 8 8 7 7 7 8 7 7 8 8 8 7 8 11 10 4 6 7 8 9 11 16 19 20 22 26 27 29 31 33 33 31 31 30 28 28 30 31 31 32 33 32 32 32 32 33 33 33 34 34 33 32 32 29 27
2 3 5 5 5 6 8 10 16 18 15 14 16 18 17 16 17 17 15 12 11 10 11 10 9 8 8 9 9 8 8 8 7 5 5 6 6 6 7 7 7 7 7 7 9 8 5 4 5 7 8 11 17 20 20 23 26 28 31 33 34 36 36 33 32 30 29 30 30 30 32 34 34 33 32 30 30 31 31 32 34 34 33 32 31 30
3 5 5 5 5 5 7 11 13 12 11 15 20 21 20 18 17 16 15 15 12 10 10 11 12 11 8 6 7 8 7 7 6 5 4 4 5 6 7 7 7 6 7 9 8 5 4 5 5 7 8 13 18 20 21 23 26 30 33 33 33 36 37 36 33 30 27 27 27 28 30 32 31 31 31 31 31 28 25 24 26 28 29 28 28 28
2 3 4 5 5 7 10 13 11 7 8 14 18 19 19 16 14 15 16 16 14 12 10 9 11 13 12 7 6 6 6 6 6 4 3 4 5 5 5 6 6 6 8 9 7 4 2 3 4 6 8 12 17 20 23 24 26 30 34 35 36 38 39 38 34 29 27 28 28 29 30 29 27 28 29 30 31 29 26 21 18 18 20 22 24 24
Wind_Direction
105 254 253 221 208 201 208 211 216 249 308 279 271 269 252 258 267 254 255 279 302 310 271 264 275 279 278 269 272 295 299 284 273 272 268 263 247 213 212 213 207 207 214 216 215 209 201 197 193 190 187 185 186 189 189 190 191 192 193 194 196 198 198 195 194 195 197 197 197 197 198 201 204 205 207 207 208 210 213 217 222 223 221 223 226 228
47 249 245 218 207 203 203 209 214 237 269 264 260 276 267 244 264 267 240 255 282 300 272 271 280 282 278 274 272 274 283 278 269 268 269 263 252 224 209 216 214 208 215 217 211 197 188 189 188 185 183 182 185 188 191 192 192 193 195 196 196 197 198 197 196 195 197 197 197 195 196 199 201 202 205 206 208 212 216 219 222 221 220 223 227 228
294 256 245 210 190 190 198 200 199 215 233 241 239 267 272 259 278 277 232 231 235 231 266 272 273 275 274 269 263 247 247 263 262 256 263 264 256 239 213 214 218 212 215 216 201 186 184 185 184 181 181 184 187 189 191 192 192 193 196 198 198 198 198 199 199 197 198 199 199 198 197 200 201 202 205 208 211 213 217 219 218 218 219 223 227 225
257 257 237 198 179 182 222 215 202 226 235 227 227 249 262 261 279 276 252 244 245 230 255 272 275 276 276 269 258 238 228 253 265 259 260 263 256 247 228 213 213 212 213 210 198 190 187 183 181 181 182 185 186 187 190 193 193 195 198 199 199 200 200 201 201 199 199 198 199 199 200 203 204 203 205 209 213 215 217 216 214 216 219 223 226 223
246 244 193 174 182 187 230 239 211 229 256 230 214 227 251 253 231 240 264 283 279 261 260 276 287 279 271 265 256 238 231 248 262 263 263 262 256 250 240 222 212 213 212 204 196 193 190 185 184 185 184 184 185 187 191 194 195 197 200 199 199 200 201 202 202 200 198 197 195 195 195 198 201 201 203 205 207 210 212 211 212 214 218 221 224 222
258 242 191 244 233 190 213 242 215 192 240 264 223 221 236 246 240 243 262 282 309 279 257 242 267 279 280 266 248 228 232 244 253 258 256 257 254 247 242 231 217 216 217 206 198 193 191 192 190 188 186 184 186 190 193 196 196 197 199 199 199 200 201 203 203 200 198 196 193 190 187 187 188 190 196 201 202 203 204 206 210 213 215 218 219 219
271 205 174 230 243 222 218 240 215 165 209 266 219 206 224 235 238 244 252 245 236 261 247 170 219 275 306 289 252 226 223 241 254 263 257 255 254 242 233 231 219 216 218 214 208 198 192 193 191 190 189 187 190 194 195 195 195 196 197 199 199 200 201 202 202 200 198 196 195 193 191 189 188 188 195 202 204 204 204 205 209 211 211 213 214 215
276 214 196 226 241 238 235 239 199 164 197 252 179 173 212 228 230 235 239 227 225 255 275 238 222 267 279 258 248 248 250 260 266 269 266 258 256 249 234 228 219 212 211 209 212 207 198 194 193 193 191 191 195 196 192 191 192 195 197 198 198 199 201 202 201 200 199 198 196 195 194 193 193 194 197 200 203 205 205 206 208 209 208 210 211 212
355 264 217 224 238 237 234 223 189 175 205 255 229 196 214 224 230 236 235 231 236 245 273 266 230 254 271 241 225 247 255 265 268 269 270 265 258 255 244 235 226 215 209 204 205 206 203 199 197 196 194 195 197 194 190 191 193 195 195 195 196 198 200 201 200 200 200 200 198 196 195 194 195 198 199 199 201 203 205 206 205 206 207 207 208 210
280 283 280 252 245 240 241 221 188 181 209 250 256 242 241 232 233 239 231 228 234 221 246 255 233 242 269 232 209 242 235 246 259 265 267 265 261 257 247 242 235 221 212 206 205 204 203 204 202 198 196 197 197 194 192 192 192 192 192 192 194 197 199 199 200 200 200 200 199 197 196 195 194 195 197 197 198 201 203 203 202 204 205 205 205 206
256 267 285 266 233 226 238 237 206 193 209 244 334 311 294 275 243 236 228 207 224 232 239 244 235 238 259 221 195 233 224 226 240 255 264 264 262 259 249 243 237 226 216 208 205 205 203 207 208 202 198 198 196 193 191 189 190 190 190 191 193 196 197 198 199 200 199 199 199 199 198 196 193 192 192 192 194 197 199 199 200 202 204 204 204 204
255 240 252 242 213 204 218 245 235 209 208 205 327 350 338 316 316 303 288 133 194 241 236 238 235 233 248 238 215 244 245 235 232 244 259 262 260 259 251 243 236 225 218 209 203 203 201 204 208 207 204 200 193 190 187 186 188 189 190 191 192 194 196 197 199 199 199 199 200 200 199 198 195 194 193 193 193 194 196 197 199 201 202 201 201 202
269 228 228 227 206 185 197 246 240 232 223 197 218 73 88 292 324 316 281 183 219 249 233 231 230 229 250 247 232 248 254 247 240 240 251 260 261 260 250 238 236 226 218 212 203 198 197 199 201 201 200 194 187 187 187 186 187 188 190 190 191 194 195 196 198 199 199 200 200 200 200 198 197 197 197 196 195 195 196 199 200 201 201 200 199 200
309 283 230 204 222 193 198 228 227 218 205 190 196 152 164 222 251 250 260 258 259 269 266 262 250 240 263 243 217 234 247 243 237 236 240 249 255 256 249 234 230 227 219 215 209 199 195 198 199 195 191 187 184 187 188 187 187 187 188 190 192 194 194 195 197 198 199 201 201 201 200 199 198 199 199 198 198 199 199 201 204 206 206 204 203 202
302 317 255 172 214 195 202 221 218 205 204 201 183 161 182 195 195 224 234 242 261 278 293 299 286 215 230 227 202 217 237 238 234 235 236 244 249 249 251 239 224 225 220 213 210 204 198 196 197 194 188 186 186 187 187 188 187 186 188 190 191 193 193 195 197 198 199 200 201 201 201 200 200 201 200 200 202 203 203 205 208 209 209 208 207 206
208 269 250 223 233 188 204 222 186 179 217 223 158 160 208 192 181 230 222 206 220 319 288 277 260 231 238 254 234 224 233 232 231 235 236 247 253 247 251 248 230 226 221 210 206 205 203 200 198 192 187 186 187 187 188 188 187 187 189 191 192 193 193 194 196 198 199 200 200 200 200 200 201 201 200 200 202 204 207 210 211 210 210 211 210 207
239 264 259 277 279 232 218 218 176 173 197 198 183 207 221 167 151 207 267 339 52 303 272 245 262 278 272 267 262 246 235 230 229 228 227 242 251 241 244 249 244 237 226 212 203 199 200 202 202 194 187 186 186 187 188 188 188 189 190 191 192 192 192 194 197 198 199 198 199 200 200 200 201 201 200 200 201 203 207 211 212 211 210 211 210 207
250 279 260 253 273 264 221 203 209 209 181 135 194 209 175 65 113 136 253 341 39 256 271 233 249 266 256 258 270 253 228 228 234 231 238 254 250 233 243 248 250 245 235 221 206 196 195 200 203 196 189 188 188 188 188 190 191 192 192 191 189 189 191 194 197 197 197 198 198 199 200 201 202 201 200 201 201 203 205 207 209 209 209 209 208 207
230 290 278 214 252 289 316 160 235 253 217 193 213 188 126 136 241 119 162 228 231 255 286 281 263 256 229 239 280 285 228 237 258 271 291 289 273 253 258 261 264 260 244 226 210 198 196 197 199 196 192 191 191 190 190 191 191 191 192 191 190 191 192 193 194 195 197 198 199 199 200 201 202 201 201 201 201 202 204 206 207 207 207 208 207 206
170 277 288 200 220 308 341 155 216 260 226 206 248 220 147 164 190 176 169 169 182 230 279 301 298 264 231 221 211 233 359 340 283 295 285 260 249 252 262 269 279 280 251 224 211 203 197 198 198 196 194 192 191 191 191 190 189 189 190 190 190 191 190 191 193 194 196 198 199 199 200 201 201 201 201 201 201 201 203 206 207 207 208 208 206 205
141 227 263 262 271 308 300 213 201 205 177 157 193 209 188 174 144 169 207 147 138 170 210 261 282 262 252 233 206 232 311 302 267 269 264 249 242 247 258 263 269 277 256 221 209 204 197 198 198 196 196 195 192 192 191 188 187 188 188 188 188 188 188 191 193 194 196 197 198 199 200 200 200 200 200 200 200 201 202 205 206 208 210 207 204 204
181 212 251 278 300 274 243 215 190 182 161 151 172 190 194 192 162 169 244 215 148 156 184 203 266 269 260 266 258 270 296 292 281 277 270 264 256 249 246 244 248 265 263 222 208 205 196 196 196 195 196 195 193 192 188 185 185 185 186 187 187 187 189 190 191 193 195 195 197 199 199 199 198 197 199 198 198 199 200 202 204 207 209 206 204 205
160 210 252 266 268 262 261 242 195 179 156 137 184 207 211 199 170 184 215 213 167 165 182 212 264 272 258 243 277 283 280 280 281 274 273 273 260 254 254 248 246 260 265 231 207 205 198 195 194 192 193 194 193 190 185 183 184 184 186 186 187 188 190 191 191 192 193 193 196 198 198 197 196 196 197 196 196 197 199 201 202 206 209 207 206 207
154 201 250 265 264 269 280 267 187 173 144 222 240 222 214 228 236 221 203 175 188 208 193 229 257 267 272 250 273 283 288 295 292 268 275 284 274 269 273 269 260 264 275 255 208 205 201 197 194 191 192 192 191 187 184 184 184 184 186 186 187 190 191 190 189 189 190 192 195 196 196 195 194 194 195 195 195 196 198 200 201 204 207 207 207 206
189 199 223 274 290 304 330 12 34 22 163 221 246 216 205 218 241 283 281 173 236 233 208 223 261 263 277 288 281 287 298 302 295 267 264 279 284 288 286 282 272 271 286 281 218 207 202 198 196 194 192 188 186 185 184 184 184 184 185 186 188 191 189 188 188 187 189 190 192 194 194 194 192 193 194 194 194 195 197 198 199 201 203 204 205 205
208 208 181 249 277 289 301 310 114 131 208 232 257 218 199 204 209 221 223 170 227 241 205 211 258 270 280 282 282 290 294 291 290 288 286 279 275 279 283 290 289 283 291 283 231 214 207 201 198 193 190 186 184 183 183 184 186 186 186 187 190 189 186 185 187 187 187 188 190 192 193 192 191 193 194 193 192 194 196 197 198 199 200 202 203 203
243 244 205 233 244 238 252 256 218 170 201 245 264 244 213 207 204 193 166 189 215 245 240 225 240 267 280 279 286 297 288 284 291 302 304 301 290 281 280 292 296 286 283 271 229 217 211 205 199 190 186 185 185 185 184 185 186 186 186 188 190 187 185 184 185 185 185 187 188 190 191 191 191 192 193 192 192 193 195 197 199 199 200 202 202 202
282 266 214 222 239 238 240 258 257 234 239 247 255 261 245 226 205 191 211 219 181 200 259 243 221 246 269 273 281 283 278 282 291 293 298 305 301 295 299 307 305 304 313 311 251 218 206 201 196 188 185 184 184 186 187 187 187 187 187 188 187 185 184 184 183 183 184 186 187 190 191 190 190 190 191 191 191 193 196 198 199 199 200 201 201 203
281 263 222 213 249 247 229 246 257 243 240 242 239 250 253 232 202 202 222 222 171 199 246 246 216 234 259 268 270 268 271 280 288 289 296 297 290 290 303 314 315 324 338 331 283 225 205 198 192 187 186 184 182 184 186 188 188 188 189 187 184 184 184 184 183 182 183 185 187 189 189 187 187 188 189 189 190 193 196 198 198 197 199 201 202 205
231 254 239 214 262 269 238 232 243 238 236 240 234 236 235 228 217 216 226 221 206 226 248 259 254 253 258 260 260 264 271 280 286 290 293 286 278 285 300 312 317 326 336 323 288 235 204 196 191 188 187 184 182 182 184 186 187 187 187 184 182 183 184 184 183 182 183 185 187 188 186 184 184 185 186 188 191 193 194 195 195 195 197 200 203 205
209 254 265 202 268 289 265 222 226 230 228 234 243 243 236 236 232 228 232 222 215 236 248 254 262 265 263 264 269 277 281 291 297 290 284 276 274 284 302 311 311 315 323 312 281 234 200 193 192 190 188 186 184 182 183 186 186 185 185 183 181 183 183 183 183 183 184 186 186 184 183 182 183 184 185 187 190 191 191 191 192 193 196 199 202 205
219 267 303 283 284 291 289 227 229 228 220 229 262 272 252 232 222 226 232 216 210 231 244 249 254 260 271 292 313 300 290 293 293 286 283 279 275 279 292 299 299 298 304 300 273 227 195 188 188 188 190 188 183 182 183 185 185 185 184 182 182 183 182 183 183 183 184 185 184 181 181 182 182 182 182 185 187 188 188 188 190 192 194 196 200 203
220 272 292 296 293 281 295 335 259 193 120 257 276 283 262 247 256 266 262 240 225 227 234 242 246 262 297 325 322 302 296 294 286 282 280 281 284 283 272 275 281 280 280 279 254 215 194 189 186 184 185 185 184 185 184 183 184 186 185 184 183 182 181 182 183 183 183 183 181 179 179 180 180 180 180 182 185 186 185 186 189 191 192 195 198 201
248 272 274 250 267 282 308 332 350 82 66 271 257 276 256 250 271 280 276 267 256 241 235 250 271 296 316 319 304 298 298 293 283 277 269 264 275 281 275 268 268 269 271 270 244 206 189 185 182 180 181 184 187 189 187 184 186 188 187 185 183 181 181 182 182 182 181 180 179 178 178 179 179 179 179 180 183 184 184 186 189 191 193 195 196 198
298 292 283 255 240 276 314 341 14 72 201 246 269 280 260 230 236 264 279 268 237 179 336 311 314 318 315 306 297 295 296 290 280 275 267 244 231 250 268 271 268 269 276 278 259 213 184 176 175 177 180 183 184 184 184 186 187 187 185 185 183 182 183 183 181 180 180 179 178 178 178 178 178 178 177 178 181 183 184 186 188 189 192 195 196 198
308 313 300 254 259 292 326 346 17 167 255 272 276 276 274 255 245 266 295 275 209 102 15 328 319 322 313 302 300 303 298 289 277 268 253 212 199 223 249 266 272 272 271 268 256 226 193 173 170 173 175 177 177 177 181 185 185 183 183 185 186 186 185 182 180 179 179 178 177 177 178 178 177 175 175 177 179 181 182 184 187 189 191 193 196 197
311 311 309 298 266 329 325 306 310 39 327 306 295 297 299 301 295 286 290 273 239 68 4 333 316 309 299 296 304 304 295 288 280 269 194 128 250 271 265 271 275 275 275 271 255 236 210 181 170 169 169 169 172 175 179 182 181 181 183 185 186 185 183 181 180 179 178 178 178 178 178 177 175 174 175 177 179 180 181 184 187 188 190 190 190 192
313 281 311 318 292 303 309 298 334 19 346 289 312 319 314 309 301 269 212 256 237 74 357 330 306 293 289 296 307 305 304 310 292 283 353 355 331 321 312 302 292 280 278 275 261 244 214 183 169 167 167 167 171 175 175 176 178 179 181 185 186 184 182 180 180 179 179 179 179 179 178 177 175 175 176 178 178 178 180 183 187 190 192 192 190 192
322 276 274 307 323 334 333 309 337 21 297 300 326 329 324 321 312 261 213 266 258 333 345 319 305 306 306 306 311 315 330 334 292 289 333 333 321 318 318 314 312 304 277 262 249 226 202 182 169 168 170 168 169 172 172 172 175 177 181 185 186 185 182 181 182 182 182 181 180 178 176 175 176 176 178 178 178 178 181 185 188 191 193 193 193 195
352 356 357 1 350 340 335 316 311 80 271 317 335 337 332 329 324 126 344 295 303 328 329 310 307 314 313 309 315 322 317 290 291 304 316 316 309 306 308 307 309 313 290 259 241 210 187 174 164 163 168 170 171 171 170 172 175 177 182 186 186 186 186 187 187 185 182 179 176 175 173 174 176 178 179 178 178 181 185 187 189 191 191 190 191 194
346 351 0 3 345 334 333 323 310 261 250 323 344 339 330 329 3 42 341 310 312 318 314 311 315 316 316 320 321 312 279 262 281 294 299 303 303 302 305 302 298 303 288 245 225 198 172 166 166 170 173 174 172 170 170 173 176 180 184 185 185 188 191 191 188 182 177 175 173 172 173 175 178 180 180 180 181 185 188 188 190 190 188 187 189 192
344 343 345 350 341 331 322 295 302 283 243 335 341 329 321 338 9 328 304 298 304 306 303 311 316 312 316 318 311 303 298 291 288 290 294 299 299 299 308 315 317 316 300 232 205 193 177 170 171 174 175 172 170 171 172 173 176 182 184 184 191 195 191 186 181 177 173 172 172 172 172 175 180 182 182 182 185 186 186 187 188 187 186 188 190 191
330 333 337 342 337 327 317 318 347 339 314 333 339 331 332 351 323 289 297 305 306 302 301 308 313 313 316 313 306 304 304 303 304 301 298 300 300 302 311 320 327 326 322 285 202 189 182 176 171 169 171 172 171 173 174 174 178 183 183 189 198 192 178 171 173 173 172 169 169 170 172 176 180 182 181 183 186 185 183 182 183 182 185 187 185 181
320 342 337 338 348 344 336 337 335 300 299 320 335 323 306 307 292 281 304 314 311 311 310 307 308 310 309 306 305 306 304 305 307 309 307 306 307 310 318 328 333 329 328 325 284 209 182 166 155 159 165 171 173 175 177 178 178 175 179 191 189 170 162 171 175 171 168 167 166 168 173 177 180 181 182 184 186 183 177 175 176 178 182 185 183 181
314 316 287 281 286 288 283 275 271 277 288 301 307 293 288 293 293 288 292 299 304 308 307 304 306 308 307 306 305 304 302 301 301 304 305 304 307 313 320 327 331 326 325 328 314 264 200 165 153 157 165 172 176 180 181 178 172 166 178 191 184 169 172 182 179 169 165 164 164 168 174 177 179 181 182 184 184 179 171 170 172 174 178 184 187 188
283 304 257 259 279 269 253 256 267 289 305 307 305 294 277 284 296 295 289 293 296 294 288 288 296 302 305 305 301 298 298 296 297 300 301 302 307 313 317 319 323 327 326 329 333 322 263 188 167 164 168 174 179 182 181 178 174 173 177 183 181 177 178 178 176 171 165 162 166 172 175 175 175 176 178 180 182 179 175 174 176 176 178 184 189 190
290 337 335 283 294 307 298 289 301 314 312 308 309 311 306 308 312 309 298 292 290 291 290 286 287 294 299 296 290 291 292 290 291 294 299 306 309 311 317 320 324 339 332 319 327 331 289 205 184 174 170 175 181 181 178 179 181 178 175 175 176 174 172 171 170 169 165 165 170 174 174 172 169 169 172 176 179 178 175 176 178 177 178 182 182 179
307 345 329 295 289 297 286 293 311 315 303 295 307 322 326 327 323 319 315 302 289 289 292 290 288 294 299 298 293 291 291 290 289 291 298 307 309 313 322 323 322 331 330 318 326 331 291 210 195 184 176 171 174 175 176 179 180 175 172 175 176 171 166 165 165 164 166 170 173 174 174 173 170 168 171 175 176 174 174 176 178 178 182 186 184 181
292 330 324 305 301 296 287 305 328 331 325 326 332 331 329 328 322 319 318 313 303 297 299 300 297 289 287 293 295 294 294 296 299 300 303 307 312 315 319 321 322 323 322 323 330 326 292 237 199 179 167 163 167 170 171 175 177 173 169 171 172 168 163 163 167 171 172 173 173 172 173 172 172 171 170 169 171 173 175 179 182 184 188 192 194 195
332 339 328 321 321 316 312 323 335 338 327 320 320 319 318 320 320 318 317 316 316 313 308 307 308 307 301 290 286 290 299 309 313 314 312 309 308 311 316 321 323 321 321 327 332 320 281 255 212 174 156 158 164 165 164 168 174 176 175 174 172 167 162 164 169 172 173 172 172 172 171 170 171 170 166 165 167 168 168 175 183 187 189 190 194 199
323 332 320 320 317 299 296 305 313 312 298 297 304 309 311 315 319 318 315 315 316 316 311 306 310 315 317 314 299 290 299 317 321 318 323 315 305 311 331 335 332 329 324 325 330 330 295 243 209 174 155 159 163 163 164 166 169 172 176 177 176 172 167 165 165 167 170 173 173 172 170 167 166 165 163 163 164 162 158 158 165 177 187 189 191 196